EW4258 Weather Reports


Display with metric or nautical units.
time (UTC)temp
F
wind
direction
speed
MPH
gust
MPH
rain 1hr
in
rain 24hr
in
rain mn
in
humidity
%
barometer
mb
20260507014112 52 202 0.0 0.0 0.00 0.00 0.00 51 1011.1
20260507013112 52 225 1.0 2.0 0.00 0.00 0.00 51 1011.1
20260507012113 52 90 0.0 0.0 0.00 0.00 0.00 51 1011.1
20260507011112 52 45 0.0 0.0 0.00 0.00 0.00 51 1011.1
20260507005112 52 292 1.0 1.0 0.00 0.00 0.00 51 1011.0
20260507003111 53 337 1.0 2.0 0.00 0.00 0.00 50 1011.0
20260507001112 53 90 1.0 0.0 0.00 0.00 0.00 49 1011.4
20260507000111 54 292 1.0 2.0 0.00 0.00 0.00 50 1010.9
20260506235111 54 292 2.0 1.0 0.00 0.00 0.00 49 1010.9
20260506234111 54 360 2.0 3.0 0.00 0.00 0.00 49 1010.9
20260506232112 54 315 2.0 6.0 0.00 0.00 0.00 49 1010.9
20260506231111 54 292 2.0 4.0 0.00 0.00 0.00 49 1010.9
20260506230111 54 292 3.0 3.0 0.00 0.00 0.00 49 1010.9
20260506225111 55 247 3.0 6.0 0.00 0.00 0.00 50 1010.9
20260506224112 55 360 4.0 4.0 0.00 0.00 0.00 50 1010.6
20260506223111 55 225 4.0 5.0 0.00 0.00 0.00 50 1010.6
20260506222111 55 337 5.0 3.0 0.00 0.00 0.00 51 1010.2
20260506221111 55 270 3.0 7.0 0.00 0.00 0.00 51 1010.2
20260506220113 56 337 5.0 8.0 0.00 0.00 0.00 51 1010.1
20260506215113 56 22 4.0 6.0 0.00 0.00 0.00 51 1010.1
20260506214113 56 292 4.0 3.0 0.00 0.00 0.00 52 1009.9
20260506213113 56 315 4.0 4.0 0.00 0.00 0.00 52 1009.9
20260506211113 57 315 3.0 8.0 0.00 0.00 0.00 51 1009.6
20260506210114 57 90 3.0 4.0 0.00 0.00 0.00 50 1009.2
20260506205113 58 247 4.0 3.0 0.00 0.00 0.00 49 1009.2
20260506204113 58 315 4.0 6.0 0.00 0.00 0.00 48 1009.2
20260506203114 58 270 3.0 4.0 0.00 0.00 0.00 46 1009.2
20260506202113 59 292 4.0 5.0 0.00 0.00 0.00 46 1009.1
20260506201112 60 247 4.0 3.0 0.00 0.00 0.00 45 1009.1
20260506200112 60 315 4.0 6.0 0.00 0.00 0.00 44 1008.8
20260506195112 60 315 4.0 7.0 0.00 0.00 0.00 43 1008.8
20260506194112 61 270 3.0 3.0 0.00 0.00 0.00 42 1008.4
20260506193112 61 337 4.0 7.0 0.00 0.00 0.00 42 1008.4
20260506191112 62 315 4.0 3.0 0.00 0.00 0.00 41 1007.9
20260506190112 63 225 5.0 6.0 0.00 0.00 0.00 39 1007.2
20260506185113 64 337 5.0 11.0 0.00 0.00 0.00 38 1007.2
20260506184112 64 337 4.0 5.0 0.00 0.00 0.00 37 1006.8
20260506183112 65 360 4.0 2.0 0.00 0.00 0.00 35 1006.8
20260506182111 66 247 4.0 6.0 0.00 0.00 0.00 33 1006.1
20260506181111 66 270 3.0 3.0 0.00 0.00 0.00 32 1006.1
20260506180111 67 315 2.0 2.0 0.00 0.00 0.00 31 1005.9
20260506175111 67 225 2.0 2.0 0.00 0.00 0.00 31 1005.9
20260506174111 67 225 3.0 4.0 0.00 0.00 0.00 31 1006.1
20260506173111 68 202 2.0 2.0 0.00 0.00 0.00 31 1006.1
20260506172111 68 157 2.0 2.0 0.00 0.00 0.00 31 1005.1
20260506171111 68 112 4.0 2.0 0.00 0.00 0.00 31 1005.1
20260506165111 69 135 3.0 2.0 0.00 0.00 0.00 32 1005.1
20260506164111 69 180 3.0 3.0 0.00 0.00 0.00 30 1004.9
20260506163110 69 90 3.0 4.0 0.00 0.00 0.00 31 1004.9
20260506162110 70 90 3.0 5.0 0.00 0.00 0.00 31 1005.6
20260506161110 70 135 3.0 3.0 0.00 0.00 0.00 31 1005.6
20260506155110 70 225 2.0 2.0 0.00 0.00 0.00 32 1004.8
20260506154110 70 157 2.0 3.0 0.00 0.00 0.00 32 1004.8
20260506153110 71 292 4.0 6.0 0.00 0.00 0.00 31 1004.8
20260506152110 71 90 5.0 6.0 0.00 0.00 0.00 31 1005.1
20260506151110 72 157 5.0 7.0 0.00 0.00 0.00 31 1005.1
20260506145110 73 90 6.0 12.0 0.00 0.00 0.00 31 1004.8
20260506144110 74 135 3.0 5.0 0.00 0.00 0.00 31 1005.3
20260506143110 74 180 2.0 3.0 0.00 0.00 0.00 32 1005.3
20260506142109 73 157 4.0 3.0 0.00 0.00 0.00 32 1005.2
20260506141110 73 67 4.0 5.0 0.00 0.00 0.00 32 1005.2
20260506140114 73 67 3.0 4.0 0.00 0.00 0.00 32 1005.5
20260506135114 73 157 4.0 5.0 0.00 0.00 0.00 32 1005.5
20260506133116 73 135 4.0 4.0 0.00 0.00 0.00 33 1006.0
20260506132114 73 67 6.0 6.0 0.00 0.00 0.00 32 1005.5
20260506131114 74 112 6.0 7.0 0.00 0.00 0.00 33 1005.5
20260506130114 74 112 6.0 10.0 0.00 0.00 0.00 32 1005.6
20260506125114 73 90 6.0 6.0 0.00 0.00 0.00 33 1005.6
20260506124114 73 180 6.0 9.0 0.00 0.00 0.00 33 1006.1
20260506123114 73 135 6.0 3.0 0.00 0.00 0.00 34 1006.1
20260506121114 73 112 5.0 8.0 0.00 0.00 0.00 34 1005.8
20260506114113 73 112 6.0 8.0 0.00 0.00 0.00 34 1006.8
20260506113114 72 157 5.0 7.0 0.00 0.00 0.00 35 1006.8
20260506112114 72 90 4.0 6.0 0.00 0.00 0.00 34 1007.0
20260506111113 71 90 2.0 5.0 0.00 0.00 0.00 36 1007.0
20260506104113 69 135 3.0 5.0 0.00 0.00 0.00 37 1007.4
20260506103113 70 225 3.0 3.0 0.00 0.00 0.00 38 1007.4
20260506102113 69 225 3.0 5.0 0.00 0.00 0.00 38 1007.4
20260506100113 68 292 2.0 3.0 0.00 0.00 0.00 40 1007.4
20260506095114 67 202 2.0 2.0 0.00 0.00 0.00 44 1007.4
20260506094113 66 202 2.0 5.0 0.00 0.00 0.00 44 1007.7
20260506092113 63 247 1.0 2.0 0.00 0.00 0.00 46 1007.6
20260506091112 62 135 1.0 1.0 0.00 0.00 0.00 47 1007.6
20260506084112 59 135 1.0 2.0 0.00 0.00 0.00 48 1008.0
20260506083112 58 225 1.0 0.0 0.00 0.00 0.00 48 1008.0
20260506082112 57 112 2.0 2.0 0.00 0.00 0.00 49 1008.1
20260506080112 56 157 2.0 2.0 0.00 0.00 0.00 49 1008.3
20260506073112 56 112 1.0 2.0 0.00 0.00 0.00 50 1008.6
20260506072112 55 180 0.0 2.0 0.00 0.00 0.00 52 1009.4
20260506071112 54 225 0.0 0.0 0.00 0.00 0.00 51 1009.4
20260506070112 54 180 0.0 0.0 0.00 0.00 0.00 51 1009.2
20260506062111 48 135 0.0 0.0 0.00 0.00 0.00 59 1010.1
20260506061111 47 45 1.0 0.0 0.00 0.00 0.00 59 1010.1
20260506060111 46 247 1.0 2.0 0.00 0.00 0.00 60 1009.8
20260506051111 44 90 0.0 0.0 0.00 0.00 0.00 60 1010.8
20260506050111 43 157 0.0 0.0 0.00 0.00 0.00 60 1010.7
20260506044112 42 157 1.0 0.0 0.00 0.00 0.00 57 1010.0
20260506043110 42 90 0.0 0.0 0.00 0.00 0.00 58 1010.0
20260506042110 42 157 0.0 0.0 0.00 0.00 0.00 58 1009.9
20260506041111 42 360 0.0 0.0 0.00 0.00 0.00 58 1009.9
20260506040110 42 202 0.0 0.0 0.00 0.00 0.00 57 1010.1
20260506035111 42 90 0.0 0.0 0.00 0.00 0.00 58 1010.1
20260506034113 42 157 0.0 0.0 0.00 0.00 0.00 56 1011.1
20260506033113 42 180 0.0 0.0 0.00 0.00 0.00 56 1011.1
20260506032113 42 202 0.0 0.0 0.00 0.00 0.00 57 1010.5
20260506031113 43 157 1.0 0.0 0.00 0.00 0.00 56 1010.5
20260506030112 43 67 1.0 2.0 0.00 0.00 0.00 55 1010.5
20260506025112 43 202 0.0 0.0 0.00 0.00 0.00 56 1010.5
20260506024112 43 202 0.0 0.0 0.00 0.00 0.00 54 1010.6
20260506023112 43 45 0.0 0.0 0.00 0.00 0.00 55 1010.6
20260506022112 44 157 0.0 0.0 0.00 0.00 0.00 54 1011.0
20260506020113 44 202 0.0 0.0 0.00 0.00 0.00 54 1010.8
20260506015112 44 315 0.0 0.0 0.00 0.00 0.00 54 1010.8